Вернуться в каталог

GLOBALSTAR M006

АктивенСвязьLEO
NORAD 25307·PAYLOAD·🇺🇸 United States

Запущен Apr 24, 1998 с Cape Canaveral Space Force Station

Loading…

Ближайшие Пролёты (ближайшие 24 часа)

TLE

СвежийSource: Space-Track

Эпоха: Sep 14, 2026, 11:11 UTC

1 25307U 98023B   26257.46624544 -.00000091  00000-0 -31768-3 0  9996
2 25307  51.9926 164.2935 0002961 206.6137 324.7480 11.58171278269460

Отслеживайте GLOBALSTAR M006 в реальном времени с AllMySat

Download on the App Store